Find Starlink 6363

NORAD ID: 57375 Int'l Des: 2023-099 Owner: SPXS Country: US Constellation: starlink operational
LEOCIRCULAR

リアルタイム位置

3D地球を読み込み中...

Starlink 6363について

説明を読み込み中...

次回通過

Passes for default location (London). Set your location on the main map for personalized predictions.

高度履歴

Loading altitude history...

軌道要素

1 57375U 23099AZ 26104.83335647 .00049622 00000-0 19615-2 0 9999
2 57375 43.0008 37.6354 0001194 302.6024 142.3781 15.24744367 5851
Epoch: Apr 14, 2026 • Age: 6 hours

現在のステータス

高度 494.5 km
速度 7.62 km/s
衛星直下点 40.14°N, 136.42°W
打ち上げ日 Jul 16, 2023
運用期間 2.7 years
タイプ internet

技術仕様

分類 Payload
質量 305.00 kg
乾燥質量 290.00 kg
総質量 305.00 kg
長さ 0.20 m
直径 2.80 m
スパン 9.00 m
形状 Box + pan
製造者 SPXS
バスタイプ Starlink
フェーズステータス In Orbit
所有者/国 SPXS/US

Most Searched